Latest Weather Observations for Fort Denison

IDN60901

Issued at 9:41 pm EDT Friday 19 December 2014 (issued every 10 minutes, with the page automatically refreshed every 10 minutes)

About weather observations | Map of Sydney area stations | Latest observations for Sydney area | Other Formats
Station Details ID: 066022 Name: FORT DENISON Lat: -33.86 Lon: 151.23 Height: 5.0 m
Data from the previous 72 hours. | See also: Recent months for locations in New South Wales
Date/Time
EDT
Tmp

°C
App
Tmp
°C
Dew
Point
°C
Rel
Hum
%
Delta-T

°C
Wind Press
QNH
hPa
Press
MSL
hPa
Rain
since
9 am
mm
Dir
 
Spd
km/h
Gust
km/h
Spd
kts
Gust
kts
19/09:30pm - - - - - SE 17 24 9 13 - - -
19/09:00pm - - - - - SE 17 24 9 13 - - -
19/08:30pm - - - - - SE 15 30 8 16 - - -
19/08:00pm - - - - - SSE 20 28 11 15 - - -
19/07:30pm - - - - - SE 20 30 11 16 - - -
19/07:00pm - - - - - SSE 20 26 11 14 - - -
19/06:30pm - - - - - SSE 22 33 12 18 - - -
19/06:00pm - - - - - SE 24 37 13 20 - - -
19/05:30pm - - - - - SE 24 35 13 19 - - -
19/05:00pm - - - - - SE 22 39 12 21 - - -
19/04:30pm - - - - - SE 24 35 13 19 - - -
19/04:00pm - - - - - SSE 28 39 15 21 - - -
19/03:30pm - - - - - SSE 22 39 12 21 - - -
19/03:00pm - - - - - SE 22 35 12 19 - - -
19/02:30pm - - - - - SSE 22 37 12 20 - - -
19/02:00pm - - - - - SE 22 39 12 21 - - -
19/01:30pm - - - - - SE 24 35 13 19 - - -
19/01:00pm - - - - - SSE 24 37 13 20 - - -
19/12:30pm - - - - - SE 24 35 13 19 - - -
19/12:00pm - - - - - SE 24 33 13 18 - - -
19/11:30am - - - - - SSE 26 39 14 21 - - -
19/11:00am - - - - - SSE 22 32 12 17 - - -
19/10:30am - - - - - S 22 33 12 18 - - -
19/10:00am - - - - - S 26 41 14 22 - - -
19/09:30am - - - - - S 24 35 13 19 - - -
19/09:00am - - - - - SSE 32 46 17 25 - - -
19/08:30am - - - - - S 32 50 17 27 - - -
19/08:02am - - - - - S 28 46 15 25 - - -
19/08:00am - - - - - S 26 46 14 25 - - -
19/07:30am - - - - - S 30 48 16 26 - - -
19/07:29am - - - - - S 30 48 16 26 - - -
19/07:00am - - - - - S 26 44 14 24 - - -
19/06:30am - - - - - S 24 37 13 20 - - -
19/06:00am - - - - - S 24 37 13 20 - - -
19/05:34am - - - - - SSW 28 46 15 25 - - -
19/05:30am - - - - - S 30 43 16 23 - - -
19/05:00am - - - - - SSW 32 50 17 27 - - -
19/04:57am - - - - - SSW 32 50 17 27 - - -
19/04:30am - - - - - SSW 33 50 18 27 - - -
19/04:05am - - - - - WSW 20 48 11 26 - - -
19/04:00am - - - - - W 19 24 10 13 - - -
19/03:30am - - - - - W 17 22 9 12 - - -
19/03:00am - - - - - W 19 24 10 13 - - -
19/02:30am - - - - - W 22 26 12 14 - - -
19/02:00am - - - - - W 19 20 10 11 - - -
19/01:30am - - - - - WNW 15 19 8 10 - - -
19/01:00am - - - - - W 11 11 6 6 - - -
19/12:30am - - - - - WNW 6 9 3 5 - - -
 
Date/Time
EDT
Tmp

°C
App
Tmp
°C
Dew
Point
°C
Rel
Hum
%
Delta-T

°C
Wind Press
QNH
hPa
Press
MSL
hPa
Rain
since
9 am
mm
Dir
 
Spd
km/h
Gust
km/h
Spd
kts
Gust
kts
18/11:30pm - - - - - SSW 2 4 1 2 - - -
18/11:00pm - - - - - ESE 7 9 4 5 - - -
18/10:30pm - - - - - SE 4 7 2 4 - - -
18/10:00pm - - - - - NE 4 9 2 5 - - -
18/09:30pm - - - - - ENE 6 11 3 6 - - -
18/09:00pm - - - - - NNE 11 19 6 10 - - -
18/08:30pm - - - - - NNE 13 24 7 13 - - -
18/08:00pm - - - - - NE 13 24 7 13 - - -
18/07:30pm - - - - - NE 17 30 9 16 - - -
18/07:00pm - - - - - NE 19 32 10 17 - - -
18/06:30pm - - - - - ENE 17 26 9 14 - - -
18/06:00pm - - - - - NE 17 28 9 15 - - -
18/05:30pm - - - - - ENE 20 30 11 16 - - -
18/05:00pm - - - - - ENE 19 28 10 15 - - -
18/04:30pm - - - - - E 22 32 12 17 - - -
18/04:00pm - - - - - E 20 26 11 14 - - -
18/03:30pm - - - - - ENE 17 28 9 15 - - -
18/03:00pm - - - - - E 20 30 11 16 - - -
18/02:30pm - - - - - E 20 30 11 16 - - -
18/02:00pm - - - - - E 17 26 9 14 - - -
18/01:30pm - - - - - E 9 15 5 8 - - -
18/01:00pm - - - - - E 7 11 4 6 - - -
18/12:30pm - - - - - E 7 9 4 5 - - -
18/12:00pm - - - - - E 4 4 2 2 - - -
18/11:30am - - - - - ENE 2 4 1 2 - - -
18/11:00am - - - - - WNW 6 9 3 5 - - -
18/10:30am - - - - - WNW 6 7 3 4 - - -
18/10:00am - - - - - WNW 9 11 5 6 - - -
18/09:30am - - - - - WNW 11 15 6 8 - - -
18/09:00am - - - - - WNW 11 13 6 7 - - -
18/08:30am - - - - - W 11 13 6 7 - - -
18/08:00am - - - - - WSW 13 17 7 9 - - -
18/07:30am - - - - - W 13 17 7 9 - - -
18/07:00am - - - - - W 13 17 7 9 - - -
18/06:30am - - - - - W 13 17 7 9 - - -
18/06:00am - - - - - N 7 11 4 6 - - -
18/05:30am - - - - - W 2 6 1 3 - - -
18/05:00am - - - - - SSE 2 6 1 3 - - -
18/04:30am - - - - - SSE 4 7 2 4 - - -
18/04:00am - - - - - ESE 9 11 5 6 - - -
18/03:30am - - - - - ESE 7 11 4 6 - - -
18/03:00am - - - - - E 9 13 5 7 - - -
18/02:30am - - - - - E 11 15 6 8 - - -
18/02:00am - - - - - E 13 17 7 9 - - -
18/01:30am - - - - - E 11 19 6 10 - - -
18/01:00am - - - - - ENE 13 19 7 10 - - -
18/12:30am - - - - - ENE 11 17 6 9 - - -
18/12:00am - - - - - E 11 17 6 9 - - -
 
Date/Time
EDT
Tmp

°C
App
Tmp
°C
Dew
Point
°C
Rel
Hum
%
Delta-T

°C
Wind Press
QNH
hPa
Press
MSL
hPa
Rain
since
9 am
mm
Dir
 
Spd
km/h
Gust
km/h
Spd
kts
Gust
kts
17/11:30pm - - - - - ENE 7 11 4 6 - - -
17/11:00pm - - - - - E 9 17 5 9 - - -
17/10:30pm - - - - - E 9 13 5 7 - - -
17/10:00pm - - - - - E 13 19 7 10 - - -
17/09:30pm - - - - - E 13 24 7 13 - - -
17/09:00pm - - - - - ESE 13 20 7 11 - - -
17/08:30pm - - - - - ESE 15 20 8 11 - - -
17/08:00pm - - - - - ESE 17 22 9 12 - - -
17/07:30pm - - - - - SE 19 24 10 13 - - -
17/07:00pm - - - - - ESE 20 28 11 15 - - -
17/06:30pm - - - - - SE 19 28 10 15 - - -
17/06:00pm - - - - - SE 19 28 10 15 - - -
17/05:30pm - - - - - SE 19 28 10 15 - - -
17/05:00pm - - - - - ESE 20 28 11 15 - - -
17/04:30pm - - - - - SE 20 32 11 17 - - -
17/04:00pm - - - - - SE 20 30 11 16 - - -
17/03:30pm - - - - - SE 20 30 11 16 - - -
17/03:00pm - - - - - SE 22 32 12 17 - - -
17/02:30pm - - - - - SE 20 44 11 24 - - -
17/02:00pm - - - - - SE 24 35 13 19 - - -
17/01:30pm - - - - - SE 24 35 13 19 - - -
17/01:00pm - - - - - SE 22 35 12 19 - - -
17/12:30pm - - - - - SE 22 32 12 17 - - -
17/12:00pm - - - - - SSE 24 35 13 19 - - -
17/11:30am - - - - - SSE 28 39 15 21 - - -
17/11:00am - - - - - SE 30 46 16 25 - - -
17/10:30am - - - - - SSE 28 43 15 23 - - -
17/10:00am - - - - - SSE 30 46 16 25 - - -
17/09:30am - - - - - S 30 44 16 24 - - -
17/09:04am - - - - - SSE 33 52 18 28 - - -
17/09:00am - - - - - SSE 33 48 18 26 - - -
17/08:30am - - - - - SSE 32 52 17 28 - - -
17/08:00am - - - - - S 28 54 15 29 - - -
17/07:53am - - - - - S 28 54 15 29 - - -
17/07:30am - - - - - S 28 44 15 24 - - -
17/07:00am - - - - - S 30 52 16 28 - - -
17/06:30am - - - - - S 30 48 16 26 - - -
17/06:06am - - - - - S 33 52 18 28 - - -
17/06:00am - - - - - S 32 48 17 26 - - -
17/05:30am - - - - - S 33 54 18 29 - - -
17/05:00am - - - - - S 35 54 19 29 - - -
17/04:32am - - - - - WSW 26 52 14 28 - - -
17/04:30am - - - - - W 24 41 13 22 - - -
17/04:00am - - - - - W 22 26 12 14 - - -
17/03:30am - - - - - W 24 28 13 15 - - -
17/03:00am - - - - - W 22 24 12 13 - - -
17/02:30am - - - - - W 20 22 11 12 - - -
17/02:00am - - - - - W 19 22 10 12 - - -
17/01:30am - - - - - WNW 17 19 9 10 - - -
17/01:00am - - - - - W 17 19 9 10 - - -
17/12:30am - - - - - WNW 4 9 2 5 - - -
17/12:00am - - - - - S 2 6 1 3 - - -
 
Date/Time
EDT
Tmp

°C
App
Tmp
°C
Dew
Point
°C
Rel
Hum
%
Delta-T

°C
Wind Press
QNH
hPa
Press
MSL
hPa
Rain
since
9 am
mm
Dir
 
Spd
km/h
Gust
km/h
Spd
kts
Gust
kts
16/11:30pm - - - - - ESE 6 7 3 4 - - -
16/11:00pm - - - - - E 7 9 4 5 - - -
16/10:30pm - - - - - ESE 6 6 3 3 - - -
16/10:00pm - - - - - E 6 7 3 4 - - -

Latest Capital City Observations: Canberra | Sydney | Melbourne | Brisbane | Adelaide | Perth | Hobart | Darwin

Other Formats:

Comma delimited format used in spreadsheet applications
http://www.bom.gov.au/fwo/IDN60901/IDN60901.94769.axf

JavaScript Object Notation format (JSON) in row-major order
http://www.bom.gov.au/fwo/IDN60901/IDN60901.94769.json